• In Belgium
  • List of Countries
  • For 7 days
  • Water Temperature
  • Satellite Maps
  • Weather Map
  • Weather Widgets
  • user-avatar
    Login

    Hourly Weather Skelleftea

    Today, 23 January, Tuesday

    Time Temperature Precipitation Wind Pressure Humidity
    00:00 -24°C° 0 mm 3 mps 758 mmHg 94%
    01:00 -24°C° 0 mm 3 mps 758 mmHg 93%
    02:00 -24°C° 0 mm 3 mps 758 mmHg 93%
    03:00 -23°C° 0 mm 2 mps 758 mmHg 93%
    04:00 -23°C° 0 mm 2 mps 758 mmHg 94%
    05:00 -23°C° 0 mm 2 mps 757 mmHg 94%
    06:00 -23°C° 0 mm 2 mps 757 mmHg 94%
    07:00 -23°C° 0 mm 2 mps 757 mmHg 94%
    08:00 -21°C° 0 mm 2 mps 757 mmHg 94%
    09:00 -21°C° 0 mm 2 mps 757 mmHg 94%
    10:00 -21°C° 0 mm 2 mps 757 mmHg 94%
    11:00 -20°C° 0 mm 2 mps 757 mmHg 93%
    12:00 -19°C° 0 mm 2 mps 757 mmHg 93%
    13:00 -18°C° 0 mm 2 mps 757 mmHg 93%
    14:00 -18°C° 0 mm 2 mps 756 mmHg 94%
    15:00 -18°C° 0 mm 2 mps 756 mmHg 94%
    16:00 -18°C° 0 mm 2 mps 756 mmHg 95%
    17:00 -15°C° 0 mm 1 mps 756 mmHg 95%
    18:00 -14°C° 0 mm 1 mps 755 mmHg 96%
    19:00 -14°C° 0 mm 1 mps 755 mmHg 96%
    20:00 -14°C° 0 mm 2 mps 754 mmHg 96%
    21:00 -13°C° 0 mm 2 mps 753 mmHg 96%
    22:00 -13°C° 0 mm 3 mps 753 mmHg 96%
    23:00 -12°C° 0.3 mm 4 mps 752 mmHg 96%

    Tomorrow, 24 January, Wednesday

    Time Temperature Precipitation Wind Pressure Humidity
    00:00 -10°C° 0.3 mm 4 mps 751 mmHg 96%
    01:00 -10°C° 0.3 mm 5 mps 750 mmHg 96%
    02:00 -9°C° 0.5 mm 6 mps 749 mmHg 95%
    03:00 -8°C° 0.5 mm 6 mps 747 mmHg 95%
    04:00 -6°C° 0.5 mm 6 mps 746 mmHg 94%
    05:00 -5°C° 0.7 mm 6 mps 745 mmHg 94%
    06:00 -5°C° 0.7 mm 6 mps 744 mmHg 94%
    07:00 -4°C° 0.7 mm 6 mps 743 mmHg 94%
    08:00 -4°C° 0.7 mm 6 mps 742 mmHg 94%
    09:00 -4°C° 0.7 mm 6 mps 742 mmHg 94%
    10:00 -4°C° 0.7 mm 6 mps 741 mmHg 94%
    11:00 -3°C° 0.5 mm 6 mps 741 mmHg 95%
    12:00 -2°C° 0.5 mm 5 mps 741 mmHg 95%
    13:00 -2°C° 0.5 mm 5 mps 740 mmHg 95%
    14:00 -2°C° 0.2 mm 5 mps 740 mmHg 96%
    15:00 -2°C° 0.2 mm 4 mps 740 mmHg 96%
    16:00 -3°C° 0.2 mm 4 mps 740 mmHg 97%
    17:00 -3°C° 0 mm 4 mps 740 mmHg 97%
    18:00 -4°C° 0 mm 4 mps 740 mmHg 97%
    19:00 -4°C° 0 mm 3 mps 740 mmHg 97%
    20:00 -3°C° 0 mm 4 mps 739 mmHg 97%
    21:00 -3°C° 0 mm 4 mps 739 mmHg 97%
    22:00 -2°C° 0 mm 4 mps 738 mmHg 96%
    23:00 -2°C° 0.4 mm 5 mps 737 mmHg 94%

    Day after tomorrow, 25 January, Thursday

    Time Temperature Precipitation Wind Pressure Humidity
    00:00 -2°C° 0.4 mm 6 mps 735 mmHg 93%
    01:00 -1°C° 0.4 mm 7 mps 733 mmHg 91%
    02:00 -1°C° 1 mm 7 mps 732 mmHg 92%
    03:00 -1°C° 1 mm 7 mps 731 mmHg 93%
    04:00 0°C° 1 mm 7 mps 730 mmHg 94%
    05:00 -1°C° 0 mm 7 mps 730 mmHg 90%
    06:00 -1°C° 0 mm 7 mps 729 mmHg 87%
    07:00 -1°C° 0 mm 8 mps 729 mmHg 83%
    08:00 -1°C° 0 mm 8 mps 729 mmHg 83%
    09:00 -1°C° 0 mm 9 mps 728 mmHg 82%
    10:00 0°C° 0 mm 10 mps 728 mmHg 81%
    11:00 0°C° 0.1 mm 9 mps 728 mmHg 82%
    12:00 0°C° 0.1 mm 9 mps 728 mmHg 82%
    13:00 0°C° 0.1 mm 9 mps 728 mmHg 82%
    14:00 0°C° 0.1 mm 9 mps 729 mmHg 82%
    15:00 0°C° 0.1 mm 9 mps 729 mmHg 82%
    16:00 0°C° 0.1 mm 9 mps 730 mmHg 82%
    17:00 0°C° 0 mm 8 mps 730 mmHg 81%
    18:00 0°C° 0 mm 8 mps 731 mmHg 79%
    19:00 0°C° 0 mm 8 mps 732 mmHg 78%
    20:00 0°C° 0 mm 8 mps 733 mmHg 78%
    21:00 0°C° 0 mm 8 mps 734 mmHg 78%
    22:00 0°C° 0 mm 8 mps 735 mmHg 78%
    23:00 0°C° 0 mm 7 mps 736 mmHg 78%

    26 January, Friday

    Time Temperature Precipitation Wind Pressure Humidity
    00:00 -1°C° 0 mm 7 mps 737 mmHg 77%
    01:00 -1°C° 0 mm 7 mps 738 mmHg 76%
    02:00 -2°C° 0 mm 7 mps 739 mmHg 77%
    03:00 -2°C° 0 mm 6 mps 740 mmHg 78%
    04:00 -2°C° 0 mm 6 mps 740 mmHg 80%
    05:00 -3°C° 0 mm 6 mps 741 mmHg 80%
    06:00 -3°C° 0 mm 6 mps 742 mmHg 81%
    07:00 -3°C° 0 mm 6 mps 742 mmHg 82%
    08:00 -4°C° 0 mm 6 mps 743 mmHg 83%
    09:00 -4°C° 0 mm 6 mps 744 mmHg 83%
    10:00 -4°C° 0 mm 5 mps 744 mmHg 84%
    11:00 -4°C° 0 mm 5 mps 745 mmHg 84%
    12:00 -4°C° 0 mm 5 mps 745 mmHg 84%
    13:00 -4°C° 0 mm 5 mps 746 mmHg 84%
    14:00 -4°C° 0 mm 5 mps 746 mmHg 85%
    15:00 -4°C° 0 mm 4 mps 747 mmHg 86%
    16:00 -5°C° 0 mm 4 mps 747 mmHg 87%
    17:00 -5°C° 0 mm 4 mps 748 mmHg 87%
    18:00 -5°C° 0 mm 4 mps 748 mmHg 87%
    19:00 -7°C° 0 mm 4 mps 749 mmHg 87%
    20:00 -7°C° 0 mm 4 mps 749 mmHg 87%
    21:00 -6°C° 0 mm 3 mps 750 mmHg 87%
    22:00 -6°C° 0 mm 3 mps 750 mmHg 88%
    23:00 -7°C° 0 mm 3 mps 751 mmHg 88%

    27 January, Saturday

    Time Temperature Precipitation Wind Pressure Humidity
    00:00 -7°C° 0 mm 3 mps 751 mmHg 88%
    01:00 -7°C° 0 mm 2 mps 752 mmHg 89%
    02:00 -7°C° 0 mm 2 mps 752 mmHg 89%
    03:00 -7°C° 0 mm 2 mps 753 mmHg 89%
    04:00 -8°C° 0 mm 2 mps 753 mmHg 89%
    05:00 -8°C° 0 mm 2 mps 753 mmHg 89%
    06:00 -9°C° 0 mm 2 mps 754 mmHg 90%
    07:00 -9°C° 0 mm 2 mps 754 mmHg 91%
    08:00 -9°C° 0 mm 2 mps 755 mmHg 91%
    09:00 -9°C° 0 mm 2 mps 756 mmHg 92%
    10:00 -9°C° 0 mm 2 mps 756 mmHg 93%
    11:00 -8°C° 0 mm 2 mps 757 mmHg 94%
    12:00 -8°C° 0 mm 2 mps 757 mmHg 94%
    13:00 -7°C° 0 mm 2 mps 757 mmHg 95%
    14:00 -7°C° 0 mm 2 mps 758 mmHg 95%
    15:00 -6°C° 0 mm 2 mps 758 mmHg 96%
    16:00 -6°C° 0 mm 2 mps 758 mmHg 96%
    17:00 -6°C° 0 mm 2 mps 758 mmHg 96%
    18:00 -7°C° 0 mm 2 mps 758 mmHg 96%
    19:00 -7°C° 0 mm 2 mps 758 mmHg 96%
    20:00 -7°C° 0 mm 2 mps 758 mmHg 96%
    21:00 -7°C° 0 mm 2 mps 758 mmHg 96%
    22:00 -7°C° 0 mm 2 mps 758 mmHg 96%
    23:00 -8°C° 0 mm 2 mps 758 mmHg 96%

    28 January, Sunday

    Time Temperature Precipitation Wind Pressure Humidity
    00:00 -8°C° 0 mm 2 mps 758 mmHg 96%
    01:00 -7°C° 0 mm 1 mps 758 mmHg 96%
    02:00 -7°C° 0 mm 1 mps 757 mmHg 97%
    03:00 -8°C° 0 mm 1 mps 757 mmHg 97%
    04:00 -8°C° 0 mm 1 mps 756 mmHg 97%
    05:00 -8°C° 0 mm 1 mps 756 mmHg 97%
    06:00 -8°C° 0 mm 1 mps 756 mmHg 97%
    07:00 -8°C° 0 mm 1 mps 756 mmHg 97%
    08:00 -8°C° 0 mm 1 mps 755 mmHg 97%
    09:00 -8°C° 0 mm 1 mps 755 mmHg 97%
    10:00 -7°C° 0 mm 1 mps 755 mmHg 97%
    11:00 -7°C° 0 mm 1 mps 755 mmHg 97%
    12:00 -7°C° 0 mm 1 mps 755 mmHg 96%
    13:00 -6°C° 0 mm 1 mps 755 mmHg 96%
    14:00 -7°C° 0 mm 1 mps 754 mmHg 96%
    15:00 -7°C° 0 mm 1 mps 754 mmHg 97%
    16:00 -7°C° 0 mm 1 mps 754 mmHg 97%
    17:00 -7°C° 0 mm 1 mps 753 mmHg 97%
    18:00 -8°C° 0 mm 2 mps 753 mmHg 97%
    19:00 -7°C° 0 mm 2 mps 753 mmHg 97%
    20:00 -7°C° 0.1 mm 2 mps 753 mmHg 97%
    21:00 -6°C° 0.1 mm 2 mps 752 mmHg 97%
    22:00 -6°C° 0.1 mm 2 mps 752 mmHg 97%
    23:00 -7°C° 0 mm 3 mps 752 mmHg 96%
    Show more